Regional Weather Roundup
Issued by NWS

Home | Current Version | Previous Version | Text Only | Print | Product List | Glossary On
Versions: 1 2 3 4 5 6 7 8 9 10 11 12 13 14 15 16 17 18 19 20 21 22 23 24 25 26 27 28 29 30 31 32 33 34 35 36 37 38 39 40 41 42 43 44 45 46 47 48 49 50
000
ASUS44 KMEG 041410
RWRTN
TENNESSEE HOURLY STATE WEATHER ROUNDUP
NATIONAL WEATHER SERVICE MEMPHIS TN
900 AM CDT MON MAY 04 2015

TNZ002-004-019-021-049-052-054-088>092-041500-
WEST TENNESSEE

CITY           SKY/WX    TMP DP  RH WIND       PRES   REMARKS
MEMPHIS INTL   MOSUNNY   72  58  61 S7        30.21R
NWS MEMPHIS      N/A     72 N/A N/A MISG        N/A
JACKSON        MOSUNNY   72  56  57 SW12      30.22R
DYERSBURG      SUNNY     73  50  43 SW3       30.21S
PARIS          SUNNY     70  55  60 SW7       30.22R
LEXINGTON      MOSUNNY   66  55  68 S7        30.23R
$$

TNZ008-025-027-028-033-062-065-066-041500-
NORTH MIDDLE TENNESSEE

CITY           SKY/WX    TMP DP  RH WIND       PRES   REMARKS
NASHVILLE      PTSUNNY   71  53  52 SW7       30.25R
CLARKSVILLE    SUNNY     70  53  54 SW7       30.22R
SMYRNA         PTSUNNY   69  55  60 S6        30.26R
COOKEVILLE     SUNNY     70  55  60 S5        30.27R
CROSSVILLE     SUNNY     71  50  47 VRB6      30.31R
$$

TNZ061-075-076-078-094-096-097-041500-
SOUTH MIDDLE TENNESSEE

CITY           SKY/WX    TMP DP  RH WIND       PRES   REMARKS
FAYETTEVILLE   SUNNY     68  52  56 SW3       30.28R
TULLAHOMA      SUNNY     70  52  52 SW6       30.29R
WINCHESTER     SUNNY     73  54  49 SW9       30.28R
MCMINNVILLE    SUNNY     70  57  64 VRB5      30.28R
COLUMBIA       SUNNY     72  55  56 SW6       30.24R
SHELBYVILLE    SUNNY     72  57  60 S6        30.28R
$$

TNZ017-018-042-046-047-041500-
NORTHEAST TENNESSEE

CITY           SKY/WX    TMP DP  RH WIND       PRES   REMARKS
TRI CITIES     SUNNY     66  52  60 CALM      30.31R
ELIZABETHTON   SUNNY     66  50  55 CALM      30.31S
$$

TNZ012-013-036-069-073-074-041500-
CENTRAL EAST TENNESSEE

CITY           SKY/WX    TMP DP  RH WIND       PRES   REMARKS
KNOXVILLE      MOSUNNY   67  53  61 CALM      30.29R
OAK RIDGE      SUNNY     67  51  56 CALM      30.30R
GATLINBURG     SUNNY     66  52  59 CALM      30.29R
MORRISTOWN     SUNNY     70  54  56 CALM      30.31R
$$

TNZ083-085-099-041500-
SOUTHEAST TENNESSEE

CITY           SKY/WX    TMP DP  RH WIND       PRES   REMARKS
CHATTANOOGA    SUNNY     67  53  61 CALM      30.30R
$$

SKY/WX REPORTED AS FAIR MEANS FEW OR NO CLOUDS BELOW
12 THOUSAND FEET.



USA.gov is the U.S. government's official web portal to all federal, state and local government web resources and services.